[[{"header":{"parameterUnit":"m.s-1","parameterCategory":1,"la1":30.2992,"la2":30.254,"lo1":-89.0895,"lo2":-89.0443,"dy":0.0025,"dx":0.0025,"nx":19,"ny":19,"refTime":"2026-05-17T21:00:00:Z","depth":0,"parameterNumber":2,"parameterNumberName":"U-component_of_WINDS"},"data":[0,0,0,-4.2887,-4.2889,-4.2953,-4.2953,-4.305,-4.3051,0,0,0,0,0,0,0,0,0,0,0,-4.2879,-4.288,-4.2887,-4.2889,-4.2953,-4.2953,-4.305,-4.3051,0,0,0,0,0,0,0,0,0,0,0,-4.2879,-4.288,-4.2881,-4.2889,-4.2953,-4.2953,-4.305,-4.2996,0,0,0,0,0,0,0,0,0,0,-4.2931,-4.2934,-4.288,-4.2881,-4.289,-4.2953,-4.2953,-4.2993,-4.2999,-4.3029,0,-4.3059,0,-4.3057,-4.3059,-4.306,0,0,0,-4.288,-4.2929,-4.2937,-4.2882,-4.2891,-4.2953,-4.2922,-4.2996,-4.3003,-4.3037,-4.306,-4.3063,-4.3059,-4.306,-4.306,-4.3264,-4.3265,0,0,-4.2877,-4.2896,-4.2932,-4.2942,-4.2935,-4.292,-4.2924,-4.3,-4.3026,-4.3061,-4.3065,-4.306,-4.3061,-4.3062,-4.3262,-4.3264,0,0,0,-4.2873,-4.2894,-4.2899,-4.2939,-4.2949,-4.2922,-4.2927,-4.3023,-4.3023,-4.3066,-4.3062,-4.3061,-4.3063,-4.3261,-4.3263,-4.3349,0,0,0,-4.287,-4.2891,-4.2898,-4.2911,-4.2948,-4.2987,-4.2948,-4.3018,-4.3026,-4.3061,-4.3061,-4.3064,-4.3259,-4.3262,-4.3343,-4.3385,0,0,0,-4.2871,-4.2891,-4.2905,-4.2911,-4.294,-4.2985,-4.299,-4.3019,-4.3023,-4.306,-4.3064,-4.3258,-4.3261,-4.3338,-4.3377,-4.3444,0,0,0,-4.2877,-4.2979,-4.2906,-4.3018,-4.294,-4.3039,-4.2989,-4.3062,-4.3103,-4.3062,-4.3259,-4.3263,-4.3336,-4.3372,-4.3439,-4.3503,-4.3532,0,0,-4.3015,-4.2996,-4.306,-4.2997,-4.3115,-4.3028,-4.3157,-4.3176,-4.3161,-4.323,-4.3234,-4.3345,-4.3376,-4.3443,-4.3691,-4.3714,0,0,0,-4.311,-4.3156,-4.3183,-4.3225,-4.3244,-4.3263,-4.326,-4.3268,-4.3326,-4.3201,-4.3387,-4.3405,-4.3444,-4.3473,-4.3493,-4.3524,-4.3278,-4.3277,-4.3277,-4.3331,-4.3309,-4.3413,-4.34,-4.3441,-4.3439,-4.3469,-4.3478,-4.3442,-4.3487,-4.3506,-4.366,-4.3695,-4.371,-4.3743,-4.354,-4.354,-4.3541,-4.3541,-4.353,-4.3591,-4.3544,-4.3629,-4.3605,-4.3674,-4.3677,-4.365,-4.371,-4.3643,-4.3675,-4.3602,-4.3736,-4.3764,-4.3547,-4.3546,-4.3545,-4.3545,-4.3544,-4.367,-4.3696,-4.3705,-4.3765,-4.3813,-4.3795,-4.3857,-4.3832,-4.3809,-4.3842,-4.3859,-4.3858,-4.3852,-4.3852,-4.3853,-4.3854,-4.3854,-4.3854,-4.3855,-4.3811,-4.3819,-4.3875,-4.3906,-4.393,-4.3959,-4.396,-4.3983,-4.4002,-4.3979,-4.3979,-4.3938,-4.3755,-4.3708,-4.3863,-4.3861,-4.386,-4.386,-4.3859,-4.4017,-4.3968,-4.4054,-4.4079,-4.4114,-4.4163,-4.4133,-4.4182,-4.4197,-4.4229,-4.4182,-4.4051,-4.4028,-4.4012,-4.3973,-4.4187,-4.4187,-4.4187,-4.4187,-4.4135,-4.4122,-4.4205,-4.4247,-4.4285,-4.4268,-4.4365,-4.4368,-4.4362,-4.437,-4.4336,-4.4283,-4.4268,-4.4254,-4.4233,-4.4196,-4.4462,-4.4462,-4.4462,-4.426,-4.425,-4.4338,-4.4334,-4.4361,-4.4383,-4.4474,-4.4522,-4.4506,-4.4473,-4.4375,-4.4364,-4.4278,-4.4252,-4.4214,-4.4182,-4.4114,0,0]},{"header":{"parameterUnit":"m.s-1","parameterCategory":1,"la1":30.2992,"la2":30.254,"lo1":-89.0895,"lo2":-89.0443,"dy":0.0025,"dx":0.0025,"nx":19,"ny":19,"refTime":"2026-05-17T21:00:00:Z","depth":0,"parameterNumber":3,"parameterNumberName":"V-component_of_WINDS"},"data":[0,0,0,1.5609,1.5608,1.5557,1.5557,1.548,1.5479,0,0,0,0,0,0,0,0,0,0,0,1.562,1.5619,1.5609,1.5608,1.5557,1.5557,1.548,1.5479,0,0,0,0,0,0,0,0,0,0,0,1.562,1.562,1.5619,1.5608,1.5557,1.5557,1.548,1.5522,0,0,0,0,0,0,0,0,0,0,1.5573,1.5579,1.562,1.5619,1.5608,1.5557,1.5557,1.5524,1.5519,1.5498,0,1.5482,0,1.5479,1.5473,1.5473,0,0,0,1.561,1.5583,1.5574,1.5619,1.5607,1.5558,1.5581,1.5521,1.5516,1.5492,1.5481,1.5478,1.5478,1.5473,1.5472,1.5354,1.5353,0,0,1.5613,1.5607,1.5578,1.5571,1.5582,1.5582,1.5579,1.5518,1.5504,1.548,1.5476,1.5477,1.5472,1.5471,1.5355,1.5354,0,0,0,1.562,1.5609,1.5602,1.5573,1.5566,1.5581,1.5577,1.5507,1.5505,1.5475,1.5476,1.5471,1.547,1.5355,1.5354,1.5319,0,0,0,1.5621,1.5613,1.5603,1.5599,1.5567,1.5536,1.5567,1.5509,1.5503,1.5476,1.5471,1.547,1.5356,1.5355,1.5321,1.5302,0,0,0,1.5625,1.5614,1.5605,1.5599,1.5577,1.5537,1.5532,1.5508,1.5503,1.5473,1.5469,1.5357,1.5355,1.5324,1.5306,1.527,0,0,0,1.5625,1.5571,1.5605,1.5544,1.5578,1.5517,1.5533,1.5487,1.5457,1.5471,1.5356,1.5354,1.5324,1.5308,1.5273,1.5239,1.5225,0,0,1.5554,1.5562,1.5527,1.5556,1.5489,1.5525,1.5451,1.5427,1.5427,1.5377,1.5375,1.5321,1.5306,1.5271,1.5149,1.5138,0,0,0,1.5503,1.5477,1.5461,1.5435,1.5418,1.5402,1.539,1.5381,1.5341,1.5402,1.5298,1.529,1.5269,1.5253,1.5244,1.5227,1.5347,1.5347,1.5348,1.5391,1.5399,1.5341,1.5343,1.5317,1.5308,1.5287,1.5273,1.5284,1.526,1.5245,1.5171,1.5152,1.5145,1.5127,1.5228,1.5228,1.5228,1.5228,1.5287,1.5252,1.5274,1.5226,1.5233,1.5191,1.518,1.519,1.5151,1.5182,1.5164,1.5196,1.5133,1.5117,1.5225,1.5226,1.5226,1.5226,1.5226,1.5214,1.5199,1.5193,1.5158,1.5129,1.5131,1.5095,1.5101,1.5107,1.5089,1.5074,1.5075,1.5076,1.5082,1.5082,1.5082,1.5081,1.5081,1.5081,1.5141,1.5135,1.5105,1.5086,1.5071,1.5053,1.5044,1.5029,1.5013,1.502,1.502,1.5034,1.5126,1.5149,1.5077,1.5078,1.5078,1.5079,1.5079,1.5031,1.5058,1.5012,1.4998,1.4976,1.4948,1.4959,1.4927,1.4915,1.4896,1.4915,1.4982,1.499,1.4997,1.5016,1.4914,1.4914,1.4914,1.4914,1.497,1.4977,1.4932,1.4909,1.4887,1.4893,1.4839,1.4832,1.4828,1.4821,1.4837,1.4863,1.4871,1.4874,1.4884,1.4902,1.4773,1.4772,1.4772,1.4903,1.4908,1.4862,1.4863,1.4848,1.4833,1.4782,1.4752,1.4753,1.4767,1.4816,1.4822,1.4863,1.4877,1.4889,1.4905,1.4937,0,0]}]]